Overview Statistics Trail Chart Weather Telemetry Raw packets
 

This is the latest recevied weather packets stored in our database for station/object W8KHW. If no packets are shown the sender has not sent any weather packets the latest 10 day(s).

<< 3 4 5 6 7 8 9 >>
Time Temp. Humidity Pressure Rain* Wind** Luminosity Snow
1777852438 10.56° C 73% 1014.5 hPa 0 mm - - -
1777851938 10.56° C 72% 1014.8 hPa 0 mm - - -
1777851438 10.56° C 69% 1015.1 hPa 0 mm - - -
1777850938 11.11° C 65% 1015.2 hPa 0 mm - - -
1777850438 12.22° C 62% 1015.1 hPa 0 mm - - -
1777849938 12.22° C 58% 1015.1 hPa 0 mm - - -
1777849437 12.22° C 57% 1015 hPa 0 mm - - -
1777848940 12.78° C 55% 1014.9 hPa 0 mm - - -
1777848437 13.33° C 50% 1014.7 hPa 0 mm - - -
1777847937 14.44° C 47% 1014.6 hPa 0 mm - - -
1777847437 14.44° C 45% 1014.6 hPa 0 mm - - -
1777846936 15° C 42% 1014.5 hPa 0 mm - - -
1777846436 15° C 43% 1014.5 hPa 0 mm - - -
1777845936 15° C 42% 1014.4 hPa 0 mm - - -
1777845436 15.56° C 43% 1014.6 hPa 0 mm - - -
1777844936 15.56° C 42% 1014.6 hPa 0 mm - - -
1777844436 15.56° C 43% 1014.8 hPa 0 mm - - -
1777843946 15.56° C 40% 1014.7 hPa 0 mm - - -
1777843435 15.56° C 40% 1014.8 hPa 0 mm - - -
1777842935 15.56° C 41% 1015 hPa 0 mm - - -
1777842435 16.11° C 44% 1014.9 hPa 0 mm - - -
1777841935 15.56° C 40% 1015 hPa 0 mm - - -
1777841434 16.11° C 43% 1015.3 hPa 0 mm - - -
1777840934 16.11° C 42% 1015 hPa 0 mm - - -
1777840434 16.67° C 42% 1015.3 hPa 0 mm - - -

* Rain latest hour (hover to see other rain measurements)
** Current wind speed in m/s (hover to see current wind gust speed)